058  
ASUS43 KLSX 160810  
RWRMO  
 
WEATHER SUMMARY FOR MISSOURI  
NATIONAL WEATHER SERVICE SPRINGFIELD MO  
300 AM CDT MON JUL 16 2018  
 
NOTE: "FAIR" INDICATES FEW OR NO CLOUDS BELOW 12,000 FEET WITH NO  
SIGNIFICANT WEATHER AND/OR S TO VISIBILITY
.  
CURRENT SKY AND/OR WEATHER CONDITIONS ARE NOT AVAILABLE FOR  
CHILLICOTHE AND FARMINGTON.  
 
MOZ001>031-035>038-043-044-053-054-160900-   
..NORTHERN AND WESTERN MISSOURI
 
 
 
CITY SKY/WX TMP DP RH WIND PRES REMARKS
 
KANSAS CTY INT MOCLDY 76 65 68 N8 30.01S  
KANSAS C DTWN MOCLDY 81 65 58 CALM 29.99S  
LEE'S SUMMIT PTCLDY 77 68 73 NW3 30.01S  
ST JOSEPH CLEAR 70 69 97 CALM 30.01S  
CHILLICOTHE N/A 72 68 87 CALM 30.01R  
KIRKSVILLE CLEAR 70 69 97 W3 30.00S  
 

 
MOZ066>068-077>081-088>096-101>105-160900-   
..SOUTHWEST MISSOURI
 
 
 
CITY SKY/WX TMP DP RH WIND PRES REMARKS
 
SPRINGFIELD PTCLDY 73 70 90 S3 30.01S  
JOPLIN CLEAR 76 70 82 S3 29.99F  
BRANSON CLEAR 72 70 94 CALM 30.03F  
 

 
MOZ032>034-039>042-045>050-055>058-069>072-160900-   
..CENTRAL MISSOURI
 
 
 
CITY SKY/WX TMP DP RH WIND PRES REMARKS
 
COLUMBIA MOCLDY 74 66 76 N6 29.98S  
JEFFERSON CITY MOCLDY 73 67 81 CALM 29.96S  
ROLLA CLEAR 72 69 90 SW6 30.00S  
SEDALIA PTCLDY 79 70 74 W6 29.99S  
WHITEMAN AFB PTCLDY 77 69 75 NW6 29.94S  
WARRENSBURG CLEAR 75 64 69 W3 29.98F  
OSAGE BEACH CLEAR 72 71 97 S5 29.99F  
 

 
MOZ051-052-059>065-160900-   
..EAST CENTRAL MISSOURI
 
 
 
CITY SKY/WX TMP DP RH WIND PRES REMARKS
 
ST LOUIS INTL PTCLDY 79 76 90 SW3 29.96S  
SPIRIT OF STL CLEAR 75 74 96 CALM 29.94S FOG  
ST CHARLES CLEAR 76 74 93 CALM 29.94F  
 

 
MOZ072>076-082>087-097>100-106>115-160900-   
..SOUTH CENTRAL AND SOUTHEAST MISSOURI
 
 
 
CITY SKY/WX TMP DP RH WIND PRES REMARKS
 
CAPE GIRARDEAU FAIR 74 71 91 W3 29.96F  
FARMINGTON PTCLDY 74 73 97 CALM 29.99F  
POPLAR BLUFF FAIR 73 73 100 CALM 29.97F  
WEST PLAINS PTCLDY 72 71 97 W3 30.02F  
 

 
 
 
CLICK HERE TO GO TO PREVIOUS BULLETINS.

The Nexlab MO Page Main Text Page